Location: Caualo
(45.5667°N, 10.8667°E)
Time: 10:40:03
(UTC+00:00)

USA 229 DEB - Pass Details

Date: 07 June 2020
Orbit: 983 x 1229 km, 63.4° (Epoch: 24 June)

Event Time Altitude Azimuth Distance (km) Brightness Sun altitude
Rises 01:07:20 0° 320° (NW) 3,962 7.0 -17.1°
Reaches altitude 10° 01:09:58 10° 319° (NW) 3,034 6.3 -16.9°
Maximum altitude 01:17:15 76° 236° (SW) 1,219 3.8 -16.3°
Drops below altitude 10° 01:24:51 10° 152° (SSE) 3,159 5.9 -15.6°
Sets 01:27:39 0° 151° (SSE) 4,134 6.5 -15.3°
